Time,TemperatureF,DewpointF,PressureIn,WindDirection,WindDirectionDegrees,WindSpeedMPH,WindSpeedGustMPH,Humidity,HourlyPrecipIn,Conditions,Clouds,dailyrainin,SolarRadiationWatts/m^2,SoftwareType,DateUTC
2013-05-30 00:00:00,72.0,61.0,-100.00,South,180,6.0,-999.0,68,-99.99,,,-99.99,0.000000,,2013-05-30 04:00:00,
2013-05-30 00:33:00,72.0,61.0,-100.00,South,180,6.0,-999.0,68,-99.99,,,-99.99,0.000000,,2013-05-30 04:33:00,
2013-05-30 00:42:00,72.0,61.0,-100.00,South,180,6.0,-999.0,68,-99.99,,,-99.99,0.000000,,2013-05-30 04:42:00,
2013-05-30 00:53:00,72.0,61.0,-100.00,South,180,6.0,-999.0,68,-99.99,,,-99.99,0.000000,,2013-05-30 04:53:00,
2013-05-30 01:00:00,71.0,61.0,-100.00,South,180,6.0,-999.0,70,-99.99,,,-99.99,0.000000,,2013-05-30 05:00:00,
2013-05-30 01:32:00,71.0,61.0,-100.00,South,180,6.0,-999.0,70,-99.99,,,-99.99,0.000000,,2013-05-30 05:32:00,
2013-05-30 01:43:00,71.0,61.0,-100.00,South,180,6.0,-999.0,70,-99.99,,,-99.99,0.000000,,2013-05-30 05:43:00,
2013-05-30 01:52:00,71.0,61.0,-100.00,South,180,6.0,-999.0,70,-99.99,,,-99.99,0.000000,,2013-05-30 05:52:00,
2013-05-30 02:00:00,70.0,60.0,-100.00,South,180,6.0,-999.0,68,-99.99,,,-99.99,0.000000,,2013-05-30 06:00:00,
2013-05-30 02:32:00,70.0,60.0,-100.00,South,180,6.0,-999.0,68,-99.99,,,-99.99,0.000000,,2013-05-30 06:32:00,
2013-05-30 02:42:00,70.0,60.0,-100.00,South,180,6.0,-999.0,68,-99.99,,,-99.99,0.000000,,2013-05-30 06:42:00,
2013-05-30 02:52:00,70.0,60.0,-100.00,South,180,6.0,-999.0,68,-99.99,,,-99.99,0.000000,,2013-05-30 06:52:00,
2013-05-30 03:00:00,70.0,59.0,-100.00,South,180,6.0,-999.0,69,-99.99,,,-99.99,0.000000,,2013-05-30 07:00:00,
2013-05-30 03:32:00,70.0,59.0,-100.00,South,180,6.0,-999.0,69,-99.99,,,-99.99,0.000000,,2013-05-30 07:32:00,
2013-05-30 03:42:00,70.0,59.0,-100.00,South,180,6.0,-999.0,69,-99.99,,,-99.99,0.000000,,2013-05-30 07:42:00,
2013-05-30 03:52:00,70.0,59.0,-100.00,South,180,6.0,-999.0,69,-99.99,,,-99.99,0.000000,,2013-05-30 07:52:00,
2013-05-30 04:00:00,69.0,59.0,-100.00,South,180,6.0,-999.0,71,-99.99,,,-99.99,0.000000,,2013-05-30 08:00:00,
2013-05-30 04:32:00,69.0,59.0,-100.00,South,180,6.0,-999.0,71,-99.99,,,-99.99,0.000000,,2013-05-30 08:32:00,
2013-05-30 04:42:00,69.0,59.0,-100.00,South,180,6.0,-999.0,71,-99.99,,,-99.99,0.000000,,2013-05-30 08:42:00,
2013-05-30 04:53:00,69.0,59.0,-100.00,South,180,6.0,-999.0,71,-99.99,,,-99.99,0.000000,,2013-05-30 08:53:00,
2013-05-30 05:00:00,69.0,60.0,-100.00,South,180,7.0,-999.0,73,-99.99,,,-99.99,0.000000,,2013-05-30 09:00:00,
2013-05-30 05:33:00,69.0,60.0,-100.00,South,180,7.0,-999.0,73,-99.99,,,-99.99,0.000000,,2013-05-30 09:33:00,
2013-05-30 05:43:00,69.0,60.0,-100.00,South,180,7.0,-999.0,73,-99.99,,,-99.99,0.000000,,2013-05-30 09:43:00,
2013-05-30 05:53:00,69.0,60.0,-100.00,South,180,7.0,-999.0,73,-99.99,,,-99.99,0.000000,,2013-05-30 09:53:00,
2013-05-30 06:00:00,69.0,60.0,-100.00,South,180,7.0,-999.0,74,-99.99,,,-99.99,0.000000,,2013-05-30 10:00:00,
2013-05-30 06:33:00,69.0,60.0,-100.00,South,180,7.0,-999.0,74,-99.99,,,-99.99,0.000000,,2013-05-30 10:33:00,
2013-05-30 06:42:00,69.0,60.0,-100.00,South,180,7.0,-999.0,74,-99.99,,,-99.99,0.000000,,2013-05-30 10:42:00,
2013-05-30 06:52:00,69.0,60.0,-100.00,South,180,7.0,-999.0,74,-99.99,,,-99.99,0.000000,,2013-05-30 10:52:00,
2013-05-30 07:00:00,69.0,61.0,-100.00,South,180,8.0,-999.0,76,-99.99,,,-99.99,10.440000,,2013-05-30 11:00:00,
2013-05-30 07:32:00,69.0,61.0,-100.00,South,180,8.0,-999.0,76,-99.99,,,-99.99,10.440000,,2013-05-30 11:32:00,
2013-05-30 07:42:00,69.0,61.0,-100.00,South,180,8.0,-999.0,76,-99.99,,,-99.99,10.440000,,2013-05-30 11:42:00,
2013-05-30 07:52:00,69.0,61.0,-100.00,South,180,8.0,-999.0,76,-99.99,,,-99.99,10.440000,,2013-05-30 11:52:00,
2013-05-30 08:00:00,70.0,62.0,-100.00,South,180,8.0,-999.0,73,-99.99,,,-99.99,100.919998,,2013-05-30 12:00:00,
2013-05-30 08:32:00,70.0,62.0,-100.00,South,180,8.0,-999.0,73,-99.99,,,-99.99,100.919998,,2013-05-30 12:32:00,
2013-05-30 08:42:00,70.0,62.0,-100.00,South,180,8.0,-999.0,73,-99.99,,,-99.99,100.919998,,2013-05-30 12:42:00,
2013-05-30 08:52:00,70.0,62.0,-100.00,South,180,8.0,-999.0,73,-99.99,,,-99.99,100.919998,,2013-05-30 12:52:00,
2013-05-30 09:00:00,74.0,63.0,-100.00,South,180,9.0,-999.0,68,-99.99,,,-99.99,286.519989,,2013-05-30 13:00:00,
2013-05-30 09:32:00,74.0,63.0,-100.00,South,180,9.0,-999.0,68,-99.99,,,-99.99,286.519989,,2013-05-30 13:32:00,
2013-05-30 09:42:00,74.0,63.0,-100.00,South,180,9.0,-999.0,68,-99.99,,,-99.99,286.519989,,2013-05-30 13:42:00,
2013-05-30 09:52:00,74.0,63.0,-100.00,South,180,9.0,-999.0,68,-99.99,,,-99.99,286.519989,,2013-05-30 13:52:00,
2013-05-30 10:00:00,75.0,63.0,-100.00,SSW,202,10.0,-999.0,66,-99.99,,,-99.99,265.640015,,2013-05-30 14:00:00,
2013-05-30 10:32:00,75.0,63.0,-100.00,SSW,202,10.0,-999.0,66,-99.99,,,-99.99,265.640015,,2013-05-30 14:32:00,
2013-05-30 10:42:00,75.0,63.0,-100.00,SSW,202,10.0,-999.0,66,-99.99,,,-99.99,265.640015,,2013-05-30 14:42:00,
2013-05-30 10:52:00,75.0,63.0,-100.00,SSW,202,10.0,-999.0,66,-99.99,,,-99.99,265.640015,,2013-05-30 14:52:00,
2013-05-30 11:00:00,77.0,64.0,-100.00,SSW,202,11.0,-999.0,64,-99.99,,,-99.99,370.040009,,2013-05-30 15:00:00,
2013-05-30 11:33:00,77.0,64.0,-100.00,SSW,202,11.0,-999.0,64,-99.99,,,-99.99,370.040009,,2013-05-30 15:33:00,
2013-05-30 11:43:00,77.0,64.0,-100.00,SSW,202,11.0,-999.0,64,-99.99,,,-99.99,370.040009,,2013-05-30 15:43:00,
2013-05-30 11:53:00,77.0,64.0,-100.00,SSW,202,11.0,-999.0,64,-99.99,,,-99.99,370.040009,,2013-05-30 15:53:00,
2013-05-30 12:00:00,80.0,65.0,-100.00,SSW,202,11.0,-999.0,61,-99.99,,,-99.99,577.679993,,2013-05-30 16:00:00,
2013-05-30 12:33:00,80.0,65.0,-100.00,SSW,202,11.0,-999.0,61,-99.99,,,-99.99,577.679993,,2013-05-30 16:33:00,
2013-05-30 12:42:00,80.0,65.0,-100.00,SSW,202,11.0,-999.0,61,-99.99,,,-99.99,577.679993,,2013-05-30 16:42:00,
2013-05-30 12:53:00,80.0,65.0,-100.00,SSW,202,11.0,-999.0,61,-99.99,,,-99.99,577.679993,,2013-05-30 16:53:00,
2013-05-30 14:00:00,81.0,64.0,-100.00,SSW,202,11.0,-999.0,55,-99.99,,,-99.99,330.600006,,2013-05-30 18:00:00,
2013-05-30 14:32:00,81.0,64.0,-100.00,SSW,202,11.0,-999.0,55,-99.99,,,-99.99,330.600006,,2013-05-30 18:32:00,
2013-05-30 14:43:00,81.0,64.0,-100.00,SSW,202,11.0,-999.0,55,-99.99,,,-99.99,330.600006,,2013-05-30 18:43:00,
2013-05-30 14:52:00,81.0,64.0,-100.00,SSW,202,11.0,-999.0,55,-99.99,,,-99.99,330.600006,,2013-05-30 18:52:00,
2013-05-30 15:00:00,82.0,64.0,-100.00,SSW,202,11.0,-999.0,53,-99.99,,,-99.99,412.959991,,2013-05-30 19:00:00,
2013-05-30 15:32:00,82.0,64.0,-100.00,SSW,202,11.0,-999.0,53,-99.99,,,-99.99,412.959991,,2013-05-30 19:32:00,
2013-05-30 15:42:00,82.0,64.0,-100.00,SSW,202,11.0,-999.0,53,-99.99,,,-99.99,412.959991,,2013-05-30 19:42:00,
2013-05-30 15:53:00,82.0,64.0,-100.00,SSW,202,11.0,-999.0,53,-99.99,,,-99.99,412.959991,,2013-05-30 19:53:00,
2013-05-30 16:00:00,83.0,62.0,-100.00,SSW,202,12.0,-999.0,49,-99.99,,,-99.99,516.200012,,2013-05-30 20:00:00,
2013-05-30 16:33:00,83.0,62.0,-100.00,SSW,202,12.0,-999.0,49,-99.99,,,-99.99,516.200012,,2013-05-30 20:33:00,
2013-05-30 16:42:00,83.0,62.0,-100.00,SSW,202,12.0,-999.0,49,-99.99,,,-99.99,516.200012,,2013-05-30 20:42:00,
2013-05-30 16:52:00,83.0,62.0,-100.00,SSW,202,12.0,-999.0,49,-99.99,,,-99.99,516.200012,,2013-05-30 20:52:00,
2013-05-30 17:00:00,84.0,62.0,-100.00,SSW,202,12.0,-999.0,47,-99.99,,,-99.99,535.919983,,2013-05-30 21:00:00,
2013-05-30 17:33:00,84.0,62.0,-100.00,SSW,202,12.0,-999.0,47,-99.99,,,-99.99,535.919983,,2013-05-30 21:33:00,
2013-05-30 17:43:00,84.0,62.0,-100.00,SSW,202,12.0,-999.0,47,-99.99,,,-99.99,535.919983,,2013-05-30 21:43:00,
2013-05-30 17:53:00,84.0,62.0,-100.00,SSW,202,12.0,-999.0,47,-99.99,,,-99.99,535.919983,,2013-05-30 21:53:00,
2013-05-30 18:00:00,82.0,63.0,-100.00,SSW,202,9.0,-999.0,51,-99.99,,,-99.99,321.320007,,2013-05-30 22:00:00,
2013-05-30 18:33:00,82.0,63.0,-100.00,SSW,202,9.0,-999.0,51,-99.99,,,-99.99,321.320007,,2013-05-30 22:33:00,
2013-05-30 18:42:00,82.0,63.0,-100.00,SSW,202,9.0,-999.0,51,-99.99,,,-99.99,321.320007,,2013-05-30 22:42:00,
2013-05-30 18:52:00,82.0,63.0,-100.00,SSW,202,9.0,-999.0,51,-99.99,,,-99.99,321.320007,,2013-05-30 22:52:00,
2013-05-30 19:00:00,81.0,64.0,-100.00,South,180,8.0,-999.0,55,-99.99,,,-99.99,165.880005,,2013-05-30 23:00:00,
2013-05-30 19:32:00,81.0,64.0,-100.00,South,180,8.0,-999.0,55,-99.99,,,-99.99,165.880005,,2013-05-30 23:32:00,
2013-05-30 19:42:00,81.0,64.0,-100.00,South,180,8.0,-999.0,55,-99.99,,,-99.99,165.880005,,2013-05-30 23:42:00,
2013-05-30 19:52:00,81.0,64.0,-100.00,South,180,8.0,-999.0,55,-99.99,,,-99.99,165.880005,,2013-05-30 23:52:00,
2013-05-30 20:00:00,81.0,62.0,-100.00,SSW,202,7.0,-999.0,53,-99.99,,,-99.99,71.919998,,2013-05-31 00:00:00,
2013-05-30 20:32:00,81.0,62.0,-100.00,SSW,202,7.0,-999.0,53,-99.99,,,-99.99,71.919998,,2013-05-31 00:32:00,
2013-05-30 20:42:00,81.0,62.0,-100.00,SSW,202,7.0,-999.0,53,-99.99,,,-99.99,71.919998,,2013-05-31 00:42:00,
2013-05-30 20:52:00,81.0,62.0,-100.00,SSW,202,7.0,-999.0,53,-99.99,,,-99.99,71.919998,,2013-05-31 00:52:00,
2013-05-30 21:00:00,79.0,63.0,-100.00,SSW,202,6.0,-999.0,58,-99.99,,,-99.99,29.000000,,2013-05-31 01:00:00,
2013-05-30 21:32:00,79.0,63.0,-100.00,SSW,202,6.0,-999.0,58,-99.99,,,-99.99,29.000000,,2013-05-31 01:32:00,
2013-05-30 21:42:00,79.0,63.0,-100.00,SSW,202,6.0,-999.0,58,-99.99,,,-99.99,29.000000,,2013-05-31 01:42:00,
2013-05-30 21:52:00,79.0,63.0,-100.00,SSW,202,6.0,-999.0,58,-99.99,,,-99.99,29.000000,,2013-05-31 01:52:00,
2013-05-30 22:00:00,77.0,62.0,-100.00,South,180,7.0,-999.0,59,-99.99,,,-99.99,1.160000,,2013-05-31 02:00:00,
2013-05-30 22:32:00,77.0,62.0,-100.00,South,180,7.0,-999.0,59,-99.99,,,-99.99,1.160000,,2013-05-31 02:32:00,
2013-05-30 22:42:00,77.0,62.0,-100.00,South,180,7.0,-999.0,59,-99.99,,,-99.99,1.160000,,2013-05-31 02:42:00,
2013-05-30 22:52:00,77.0,62.0,-100.00,South,180,7.0,-999.0,59,-99.99,,,-99.99,1.160000,,2013-05-31 02:52:00,
2013-05-30 23:00:00,76.0,63.0,-100.00,South,180,8.0,-999.0,64,-99.99,,,-99.99,0.000000,,2013-05-31 03:00:00,
2013-05-30 23:33:00,76.0,63.0,-100.00,South,180,8.0,-999.0,64,-99.99,,,-99.99,0.000000,,2013-05-31 03:33:00,
2013-05-30 23:43:00,76.0,63.0,-100.00,South,180,8.0,-999.0,64,-99.99,,,-99.99,0.000000,,2013-05-31 03:43:00,
2013-05-30 23:53:00,76.0,63.0,-100.00,South,180,8.0,-999.0,64,-99.99,,,-99.99,0.000000,,2013-05-31 03:53:00,